STARLINK-3830, 52363

Orbit data source: Space-Track

STARLINK-3830, 52363 is a payload satellite owned by SpaceX/Seattle (US) in LEO that was launched on Fri, 29 Apr 2022 UTC via an FALCON 9 launch vehicle from the Air Force Eastern Test Range (AFETR). Payload-class satellites include a variety of spacecraft equipped with specific instruments for various scientific and technological missions. These include communications satellites like Starlink; space stations such as the ISS; scientific satellites like the Hubble; Earth observation satellites from companies like Planet Labs, Umbra, and HawkEye 360; GPS; miniature CubeSats for education and research; and military/defense satellites.

Loading next visibility...
Identifier
52363, 2022-045AJ
Orbit
LEO
Country
Flag of USUS
Related business
Manufacturer
SpaceX/Seattle
Mission
Operational Commercial Communications
Bus & Motor
STARLINK, Unknown motor
Mass
297 kg wet, ~275 kg dry
Launch date (UTC)
2022-04-29 (4 years ago)
Launch vehicle
FALCON 9
Launch site
Air Force Eastern Test Range (AFETR)
Object type
Payload
Rocket body
Debris
Shape & HBR
Box + 1 Pan, 10.1 m
Radar Cross Section
11.087 m², Large (>1 m²)

Expand to show TLE details & history
Last TLE update: 18 hours ago

TLE from 18 hours ago
0 STARLINK-3830
1 52363U 22045AJ  25349.34323921 -.00002871  00000-0 -16239-3 0  9996
2 52363  53.2156 217.7642 0001437  83.2854 276.8301 15.08828727203052
Epoch: 2025-12-15T08:14Z
TLE epoch observation values (Epoch: 2025-12-15T08:14:15.867Z)
Latitude
-0.00009°
Longitude
9.95486°
Altitude
540.557 km
Speed
7.593 km/s
True Right ascension
14h 31m 03s
True Declination
0° 00' 00"
Sunlit
Object was in daylight at epoch
Visualization orbit readout
Latitude
Unknown
Longitude
Unknown
Altitude
Unknown
Speed
Unknown
Apparent Right ascension
Unknown
Apparent Declination
Unknown
Sunlit
N/A
Visualization observer readout
Local Sidereal Time
00:24:32
Azimuth
Unknown
Elevation
Unknown
Doppler factor
Unknown
Orbital elements
Apogee altitude
541.017 km
Perigee altitude
539.029 km
Semi-major axis
6,918.16 km
Eccentricity
0.00014
Inclination
53.2156°
RAAN
217.7642°
Arg. of periapsis
83.2854°
True anomaly
276.81375°
Mean anomaly
276.8301°
Eccentric anomaly
276.82192°
Mean motion
3.77187 °/min
Orbital period
95.44 mins
BSTAR
-0.00016239
Loading maneuver chart data...
Computing Atmospheric mass density...
Loading historical data...
Loading historical data...
Loading historical data...
Loading historical data...
Loading historical data...
Loading historical data...
Loading historical data...

Documentation

Showing up to 5 results
|